Home   Weather   Gitega   Past weeks

Flag for Burundi Past Weather in Gitega, Burundi — Yesterday and Last 2 Weeks

Now
61 °F

Passing clouds.


Feels Like: 61 °F
Forecast: 54 / 78 °F
Wind: 5 mph from Northwest

Location: Kigali Airport

Current Time: May 26, 2017 at 5:50:15 am

Latest Report: May 26, 2017 at 5:00 am


Visibility: N/A

Pressure: 30.12 "Hg (24.70 "Hg at 1679m altitude)

Humidity: 88%

Dew Point: 57 °F

Location of GitegaLocation

Past Weather in Gitega — Graph

°F

Gitega Temperature Yesterday

Maximum temperature yesterday: 82 °F (at 3:30 pm)
Minimum temperature yesterday: 61 °F (at 4:30 am)
Average temperature yesterday: 71 °F

High & Low Weather Summary for the Past Weeks

 TemperatureHumidityPressure
High82 °F (May 25, 3:30 pm)100% (May 11, 7:30 am)30.30 "Hg (May 11, 7:30 am)
Low61 °F (May 12, 3:03 am)41% (May 15, 8:00 am)30.04 "Hg (May 13, 4:30 pm)
Average69 °F75%30.15 "Hg
* Reported May 11 4:00 am — May 26 4:30 am, Gitega. Weather by CustomWeather, © 2017

Note: Actual official high and low records may vary slightly from our data, if they occured in-between our weather recording intervals... More about our weather records

Advertising

Gitega Weather History for the Previous 24 Hours

Scroll right to see more
 ConditionsComfort  
Time TempWeatherWind HumidityBarometerVisibility
4:30 am
Fri, May 26
61 °FPassing clouds.3 mph88%30.12 "HgN/A
4:00 am61 °FPassing clouds.3 mph88%30.12 "HgN/A
3:30 am63 °FPassing clouds.2 mph83%30.09 "HgN/A
3:00 am63 °FPassing clouds.2 mph83%30.09 "HgN/A
2:30 am64 °FPassing clouds.3 mph78%30.09 "HgN/A
2:00 am64 °FPassing clouds.2 mph78%30.09 "HgN/A
1:30 am64 °FPassing clouds.3 mph78%30.12 "HgN/A
1:00 am64 °FPassing clouds.5 mph78%30.09 "HgN/A
12:00 am66 °FPassing clouds.7 mph78%30.12 "HgN/A
11:30 pm
Thu, May 25
66 °FPassing clouds.6 mph78%30.12 "HgN/A
11:00 pm70 °FPassing clouds.2 mph64%30.12 "HgN/A
10:30 pm70 °FPassing clouds.3 mph64%30.12 "HgN/A
10:00 pm72 °FPassing clouds.2 mph57%30.12 "HgN/A
9:30 pm72 °FPassing clouds.5 mph61%30.12 "HgN/A
9:00 pm72 °FPassing clouds.6 mph57%30.09 "HgN/A
8:30 pm73 °FPassing clouds.7 mph57%30.09 "HgN/A
8:00 pm73 °FPassing clouds.6 mph57%30.09 "HgN/A
7:00 pm75 °FPassing clouds.No wind50%30.07 "HgN/A
6:30 pm75 °FPassing clouds.2 mph54%30.07 "HgN/A
6:00 pm75 °FPassing clouds.3 mph50%30.07 "HgN/A
5:30 pm77 °FPassing clouds.6 mph51%30.07 "HgN/A
5:00 pm79 °FScattered clouds.No wind48%30.07 "HgN/A
4:30 pm79 °FScattered clouds.7 mph48%30.07 "HgN/A
4:00 pm81 °FPassing clouds.6 mph45%30.07 "HgN/A
3:30 pm82 °FScattered clouds.2 mph42%30.07 "HgN/A
3:00 pm81 °FScattered clouds.6 mph45%30.09 "HgN/A
2:00 pm79 °FScattered clouds.7 mph48%30.12 "HgN/A
1:30 pm79 °FScattered clouds.7 mph48%30.12 "HgN/A
1:00 pm79 °FScattered clouds.6 mph51%30.15 "HgN/A
12:30 pm77 °FScattered clouds.8 mph51%30.15 "HgN/A
12:00 pm77 °FScattered clouds.8 mph54%30.18 "HgN/A
11:30 am77 °FScattered clouds.6 mph54%30.18 "HgN/A
11:00 am77 °FScattered clouds.7 mph54%30.21 "HgN/A
10:00 am73 °FScattered clouds.7 mph61%30.21 "HgN/A
9:30 am73 °FScattered clouds.6 mph65%30.21 "HgN/A
9:00 am72 °FScattered clouds.5 mph69%30.21 "HgN/A
8:00 am70 °FPassing clouds.No wind78%30.21 "HgN/A
7:30 am66 °FPassing clouds.5 mph78%30.21 "HgN/A
7:00 am63 °FScattered clouds.2 mph88%30.18 "HgN/A
6:30 am61 °FScattered clouds.3 mph94%30.18 "HgN/A
6:00 am63 °FPassing clouds.3 mph88%30.12 "HgN/A
5:30 am61 °FPassing clouds.5 mph88%30.15 "HgN/A
5:00 am63 °FPassing clouds.3 mph88%30.12 "HgN/A
Weather by CustomWeather, © 2017

See weather overviewHow to use our weather pages